Bradford, PA

8:19 AM EDT on April 29, 2017 (GMT -0400)
Bradford Regional

Weather History for KBFD - October, 2012

Change the Weather History Date:

Thursday, October 4, 2012

  Actual Average Record
Temperature  
Mean Temperature 62 °F 50 °F  
Max Temperature 71 °F 61 °F 77 °F (1967)
Min Temperature 53 °F 39 °F 20 °F (1974)
Degree Days  
Heating Degree Days 2 11  
Month to date heating degree days 41  
Since 1 July heating degree days 458  
Cooling Degree Days 0 0  
Month to date cooling degree days 0  
Year to date cooling degree days 192  
Growing Degree Days 12 (Base 50)    
Moisture  
Dew Point 52 °F    
Average Humidity 79    
Maximum Humidity 93    
Minimum Humidity 41    
Precipitation  
Precipitation 0.00 in 0.12 in 0.85 in (2000)
Month to date precipitation 0.48  
Year to date precipitation 34.35  
Sea Level Pressure  
Sea Level Pressure 30.16 in    
Wind  
Wind Speed 2 mph (WSW)    
Max Wind Speed 13 mph    
Max Gust Speed 24 mph    
Visibility 6 miles    
Events Fog    
T = Trace of Precipitation, MM = Missing Value Source: NWS Daily Summary

Daily Weather History Graph

Daily Weather History Graph

Search for Another Location

Airport or City:

Trip Planner

Search our weather history database for the weather conditions in past years. The results will help you decide how hot, cold, wet, or windy it might be!

Date:

Astronomy

Oct. 04, 2012 Rise Set
Actual Time 7:15 AM EDT 6:50 PM EDT
Civil Twilight 6:47 AM EDT 7:18 PM EDT
Nautical Twilight 6:15 AM EDT 7:50 PM EDT
Astronomical Twilight 5:42 AM EDT 8:22 PM EDT
Moon 9:20 PM EDT (10/4) 11:34 AM EDT (10/4)
Length of Visible Light 12h 30m
Length of Day
11h 35m
Waning Gibbous, 82% of the Moon is Illuminated
Oct 4
Waning Gibbous
Oct 8
Last Quarter
Oct 15
New
Oct 21
First Quarter
Oct 29
Full

Hourly Weather History & Observations

Time (EDT) Temp. Dew Point Humidity Pressure Visibility Wind Dir Wind Speed Gust Speed Precip Events Conditions
12:53 AM 59.0 °F 55.0 °F 87% 30.16 in 9.0 mi WNW 3.5 mph - N/A   Scattered Clouds
12:59 AM 60.1 °F 55.9 °F 86% 30.20 in 10.0 mi Calm Calm - N/A   Mostly Cloudy
1:44 AM 61.0 °F 57.0 °F 87% 30.20 in 10.0 mi West 3.5 mph - N/A   Overcast
1:53 AM 61.0 °F 57.0 °F 87% 30.16 in 10.0 mi West 3.5 mph - N/A   Overcast
2:00 AM 61.0 °F 57.0 °F 87% 30.20 in 10.0 mi WNW 3.5 mph - N/A   Overcast
2:53 AM 59.0 °F 55.9 °F 90% 30.15 in 7.0 mi Calm Calm - N/A   Scattered Clouds
3:53 AM 57.9 °F 55.0 °F 90% 30.16 in 5.0 mi Calm Calm - N/A   Clear
4:10 AM 57.0 °F 54.0 °F 89% 30.17 in 2.5 mi Calm Calm - N/A   Partly Cloudy
4:18 AM 57.0 °F 54.0 °F 89% 30.17 in 1.8 mi Calm Calm - N/A   Mostly Cloudy
4:45 AM 57.0 °F 54.0 °F 89% 30.20 in 3.0 mi Calm Calm - N/A   Mostly Cloudy
4:53 AM 57.9 °F 54.0 °F 87% 30.16 in 6.0 mi Calm Calm - N/A   Mostly Cloudy
4:58 AM 55.9 °F 54.0 °F 93% 30.20 in 1.8 mi Calm Calm - N/A   Mostly Cloudy
5:53 AM 55.9 °F 53.1 °F 90% 30.16 in 4.0 mi ESE 3.5 mph - N/A   Clear
5:57 AM 55.9 °F 53.1 °F 90% 30.19 in 2.5 mi Calm Calm - N/A   Partly Cloudy
6:14 AM 57.0 °F 54.0 °F 89% 30.18 in 1.8 mi Calm Calm - N/A   Mostly Cloudy
6:29 AM 55.9 °F 53.1 °F 90% 30.19 in 2.5 mi Calm Calm - N/A   Mostly Cloudy
6:33 AM 55.0 °F 52.0 °F 89% 30.19 in 0.8 mi East 3.5 mph - N/A   Mostly Cloudy
6:53 AM 55.0 °F 53.1 °F 93% 30.16 in 0.5 mi Calm Calm - N/A Fog Fog
7:17 AM 55.0 °F 53.1 °F 93% 30.19 in 2.0 mi Calm Calm - N/A   Mostly Cloudy
7:22 AM 54.0 °F 52.0 °F 93% 30.19 in 0.8 mi Calm Calm - N/A   Mist
7:44 AM 54.0 °F 52.0 °F 93% 30.18 in 0.2 mi Calm Calm - N/A Fog Fog
7:53 AM 54.0 °F 52.0 °F 93% 30.17 in 0.2 mi Calm Calm - N/A Fog Fog
8:15 AM 55.0 °F 52.0 °F 89% 30.19 in 1.0 mi Calm Calm - N/A   Mist
8:21 AM 55.0 °F 52.0 °F 89% 30.19 in 2.0 mi Calm Calm - N/A   Scattered Clouds
8:33 AM 55.0 °F 53.1 °F 93% 30.19 in 4.0 mi Calm Calm - N/A   Clear
8:53 AM 55.9 °F 54.0 °F 93% 30.18 in 4.0 mi Calm Calm - N/A   Clear
9:53 AM 61.0 °F 53.1 °F 75% 30.18 in 10.0 mi SSW 5.8 mph - N/A   Clear
11:53 AM 64.0 °F 51.1 °F 63% 30.17 in 10.0 mi WSW 4.6 mph - N/A   Partly Cloudy
12:53 PM 66.9 °F 48.9 °F 52% 30.15 in 10.0 mi WSW 9.2 mph - N/A   Scattered Clouds
1:53 PM 69.1 °F 48.0 °F 47% 30.13 in 10.0 mi WSW 12.7 mph 24.2 mph N/A   Partly Cloudy
2:53 PM 70.0 °F 45.0 °F 41% 30.12 in 10.0 mi SW 10.4 mph 19.6 mph N/A   Clear
3:53 PM 71.1 °F 46.0 °F 41% 30.11 in 10.0 mi West 8.1 mph - N/A   Partly Cloudy
4:53 PM 69.1 °F 46.0 °F 44% 30.11 in 10.0 mi West 9.2 mph - N/A   Mostly Cloudy
6:53 PM 66.0 °F 46.9 °F 50% 30.12 in 10.0 mi WSW 5.8 mph - N/A   Overcast
7:53 PM 64.9 °F 46.9 °F 52% 30.13 in 10.0 mi Variable 4.6 mph - N/A   Overcast
8:53 PM 62.1 °F 48.0 °F 60% 30.13 in 10.0 mi Calm Calm - N/A   Partly Cloudy
9:53 PM 55.9 °F 48.9 °F 77% 30.13 in 10.0 mi Calm Calm - N/A   Clear
10:53 PM 57.9 °F 48.0 °F 70% 30.13 in 10.0 mi WSW 3.5 mph - N/A   Clear
11:53 PM 53.1 °F 48.0 °F 83% 30.12 in 10.0 mi Calm Calm - N/A   Clear